05.05.2024;05:00;72
05.05.2024;04:00;69
05.05.2024;03:00;70
05.05.2024;02:00;72
05.05.2024;01:00;76
05.05.2024;00:00;77
04.05.2024;23:00;80
04.05.2024;22:00;76
04.05.2024;21:00;74
04.05.2024;20:00;84
04.05.2024;19:00;89
04.05.2024;18:00;88
04.05.2024;17:00;87
04.05.2024;16:00;87
04.05.2024;15:00;87
04.05.2024;14:00;85
04.05.2024;13:00;78
04.05.2024;12:00;70
04.05.2024;11:00;61
04.05.2024;10:00;31
04.05.2024;09:00;14
04.05.2024;08:00;9
04.05.2024;07:00;6
04.05.2024;06:00;9
04.05.2024;05:00;16
04.05.2024;04:00;23
04.05.2024;03:00;23
04.05.2024;02:00;22
04.05.2024;01:00;28
04.05.2024;00:00;35
03.05.2024;23:00;43
03.05.2024;22:00;47
03.05.2024;21:00;58
03.05.2024;20:00;70
03.05.2024;19:00;69
03.05.2024;18:00;80
03.05.2024;17:00;86
03.05.2024;16:00;80
03.05.2024;15:00;81
03.05.2024;14:00;78
03.05.2024;13:00;73
03.05.2024;12:00;76
03.05.2024;11:00;76
03.05.2024;10:00;76
03.05.2024;09:00;76
03.05.2024;08:00;69
03.05.2024;07:00;63
03.05.2024;06:00;63
